Location: Coupvray
(48.8929°N, 2.7967°E)
Time: 00:36:39
(UTC+00:00)

H-2A R/B - Pass Details

Date: 14 July 2020
Orbit: 577 x 656 km, 98.5° (Epoch: 03 August)

Event Time Altitude Azimuth Distance (km) Brightness Sun altitude
Rises 02:04:59 0° 131° (SE) 2,922 5.4 -13.7°
Reaches altitude 10° 02:07:29 10° 118° (ESE) 2,005 4.7 -13.5°
Maximum altitude 02:11:01 25° 64° (ENE) 1,260 4.4 -13.2°
Drops below altitude 10° 02:14:32 10° 9° (N) 1,976 5.8 -12.9°
Sets 02:16:58 0° 356° (N) 2,871 6.4 -12.7°
